Mountain Home AFB, ID

8:00 AM MST on December 05, 2016 (GMT -0700)
Mountain Home Air Force Base

Weather History for KMUO - October, 2011

Change the Weather History Date:

Thursday, October 6, 2011

  Actual Average Record
Temperature  
Mean Temperature 41 °F 55 °F  
Max Temperature 46 °F 71 °F 91 °F (1958)
Min Temperature 35 °F 39 °F 17 °F (1913)
Degree Days  
Heating Degree Days 24 10  
Month to date heating degree days 44 53  
Cooling Degree Days 0 0  
Month to date cooling degree days 13 2  
Moisture  
Dew Point 39 °F    
Average Humidity 90    
Maximum Humidity 100    
Minimum Humidity 75    
Precipitation  
Precipitation 0.38 in 0.02 in 1.03 in (1925)
Month to date precipitation 1.39 0.12  
Sea Level Pressure  
Sea Level Pressure 29.76 in    
Wind  
Wind Speed 11 mph (WNW)    
Max Wind Speed 25 mph    
Max Gust Speed 33 mph    
Visibility 9 miles    
Events Rain    
T = Trace of Precipitation, MM = Missing Value Source: NWS Daily Summary

Daily Weather History Graph

Daily Weather History Graph

Search for Another Location

Airport or City:

Trip Planner

Search our weather history database for the weather conditions in past years. The results will help you decide how hot, cold, wet, or windy it might be!

Date:

Astronomy

Oct. 06, 2011 Rise Set
Actual Time 7:46 AM MDT 7:16 PM MDT
Civil Twilight 7:17 AM MDT 7:44 PM MDT
Nautical Twilight 6:45 AM MDT 8:17 PM MDT
Astronomical Twilight 6:11 AM MDT 8:50 PM MDT
Moon 4:38 PM MDT (10/6) 2:31 AM MDT (10/6)
Length of Visible Light 12h 26m
Length of Day
11h 29m
Waxing Gibbous, 76% of the Moon is Illuminated
Oct 6
Waxing Gibbous
Oct 11
Full
Oct 19
Last Quarter
Oct 26
New
Nov 2
First Quarter

Hourly Weather History & Observations

Time (MDT) Temp. Windchill Dew Point Humidity Pressure Visibility Wind Dir Wind Speed Gust Speed Precip Events Conditions
12:55 AM 44.4 °F 40.5 °F 41.5 °F 90% 29.64 in 10.0 mi West 6.9 mph - N/A   Mostly Cloudy
1:55 AM 42.3 °F 37.9 °F 40.6 °F 94% 29.65 in 10.0 mi WNW 6.9 mph - N/A   Mostly Cloudy
2:42 AM 42.8 °F 38.0 °F 41.0 °F 93% 29.66 in 10.0 mi WNW 8.1 mph - N/A   Overcast
2:55 AM 41.7 °F 37.3 °F 40.1 °F 94% 29.67 in 10.0 mi WNW 6.9 mph - 0.01 in   Mostly Cloudy
3:44 AM 41.0 °F 36.4 °F 39.2 °F 93% 29.67 in 10.0 mi West 6.9 mph - N/A Rain Light Rain
3:55 AM 41.2 °F 35.5 °F 40.1 °F 96% 29.67 in 10.0 mi West 9.2 mph - 0.00 in Rain Light Rain
4:06 AM 41.0 °F 34.3 °F 39.2 °F 93% 29.67 in 10.0 mi NW 11.5 mph - N/A   Overcast
4:44 AM 41.0 °F 34.7 °F 39.2 °F 93% 29.67 in 10.0 mi NW 10.4 mph - N/A   Mostly Cloudy
4:55 AM 40.6 °F 34.8 °F 39.0 °F 94% 29.68 in 10.0 mi NW 9.2 mph - 0.00 in   Scattered Clouds
5:28 AM 39.2 °F - 37.4 °F 93% 29.69 in 10.0 mi Calm Calm - N/A   Mostly Cloudy
5:55 AM 39.2 °F - 37.9 °F 95% 29.70 in 10.0 mi Calm Calm - N/A   Overcast
6:03 AM 39.2 °F - 37.4 °F 93% 29.70 in 10.0 mi Calm Calm - N/A   Overcast
6:24 AM 37.4 °F - 37.4 °F 100% 29.71 in 10.0 mi Calm Calm - N/A   Scattered Clouds
6:55 AM 36.5 °F 31.8 °F 36.1 °F 99% 29.71 in 10.0 mi WNW 5.8 mph - N/A   Partly Cloudy
7:55 AM 35.1 °F 27.9 °F 35.1 °F 100% 29.73 in 10.0 mi West 9.2 mph - N/A   Partly Cloudy
8:55 AM 39.6 °F 33.0 °F 37.8 °F 93% 29.74 in 10.0 mi WNW 10.4 mph - N/A   Overcast
9:28 AM 41.0 °F 34.3 °F 37.4 °F 87% 29.74 in 10.0 mi NW 11.5 mph - N/A   Overcast
9:40 AM 42.8 °F 37.0 °F 39.2 °F 87% 29.75 in 10.0 mi NW 10.4 mph - N/A   Overcast
9:55 AM 42.3 °F 35.1 °F 38.3 °F 86% 29.75 in 10.0 mi NW 13.8 mph - N/A   Overcast
10:10 AM 42.8 °F 35.8 °F 37.4 °F 81% 29.75 in 10.0 mi NW 13.8 mph - N/A   Overcast
10:30 AM 42.8 °F 34.8 °F 37.4 °F 81% 29.75 in 10.0 mi NW 17.3 mph - N/A   Overcast
10:39 AM 42.8 °F 35.1 °F 37.4 °F 81% 29.74 in 10.0 mi NW 16.1 mph 24.2 mph N/A Rain Light Rain
10:55 AM 43.7 °F 36.0 °F 37.0 °F 77% 29.76 in 10.0 mi NW 17.3 mph - 0.00 in Rain Light Rain
11:55 AM 42.8 °F 33.5 °F 37.6 °F 82% 29.76 in 10.0 mi NW 23.0 mph 31.1 mph 0.00 in Rain Light Rain
12:20 PM 42.8 °F 33.8 °F 37.4 °F 81% 29.75 in 10.0 mi WNW 21.9 mph 33.4 mph N/A   Light Drizzle
12:55 PM 43.5 °F 34.0 °F 38.5 °F 82% 29.76 in 10.0 mi NW 25.3 mph 31.1 mph 0.00 in Rain Light Rain
1:39 PM 44.6 °F 36.4 °F 39.2 °F 81% 29.75 in 10.0 mi NW 20.7 mph 28.8 mph N/A Rain Light Rain
1:55 PM 44.1 °F 35.4 °F 37.6 °F 78% 29.78 in 10.0 mi WNW 21.9 mph 29.9 mph 0.00 in   Light Drizzle
2:24 PM 44.6 °F 35.9 °F 37.4 °F 76% 29.78 in 10.0 mi WNW 23.0 mph - N/A Rain Light Rain
2:42 PM 44.6 °F 36.4 °F 37.4 °F 76% 29.75 in 6.0 mi NW 20.7 mph 27.6 mph N/A Rain Light Rain
2:55 PM 45.3 °F 36.9 °F 37.9 °F 75% 29.78 in 6.0 mi NW 23.0 mph 28.8 mph 0.00 in Rain Light Rain
3:32 PM 44.6 °F 36.6 °F 39.2 °F 81% 29.79 in 6.0 mi NW 19.6 mph 28.8 mph N/A Rain Light Rain
3:55 PM 45.0 °F 37.4 °F 39.2 °F 80% 29.80 in 6.0 mi NW 18.4 mph 26.5 mph 0.01 in Rain Light Rain
4:55 PM 44.6 °F 36.9 °F 41.7 °F 90% 29.81 in 5.0 mi NW 18.4 mph - 0.02 in Rain Light Rain
5:41 PM 44.6 °F 36.9 °F 41.0 °F 87% 29.83 in 5.0 mi NW 18.4 mph 24.2 mph N/A Rain Light Rain
5:48 PM 42.8 °F 34.0 °F 41.0 °F 93% 29.83 in - NW 20.7 mph - N/A Rain Light Rain
5:55 PM 43.5 °F 34.7 °F 41.7 °F 93% 29.83 in 5.0 mi NW 21.9 mph - 0.05 in Rain Light Rain
6:30 PM 42.8 °F 35.1 °F 42.8 °F 100% 29.84 in 4.0 mi WNW 16.1 mph - N/A Rain Rain
6:55 PM 43.2 °F 35.6 °F 42.6 °F 98% 29.86 in 4.0 mi WNW 16.1 mph - 0.11 in Rain Rain
7:55 PM 43.2 °F 36.2 °F 43.2 °F 100% 29.87 in 5.0 mi West 13.8 mph - 0.13 in Rain Rain
8:18 PM 42.8 °F 35.4 °F 42.8 °F 100% 29.86 in 7.0 mi West 15.0 mph - N/A Rain Rain
8:55 PM 43.2 °F 36.6 °F 43.2 °F 100% 29.87 in 10.0 mi West 12.7 mph - 0.08 in Rain Light Rain
9:55 PM 43.2 °F 36.2 °F 43.2 °F 100% 29.86 in 10.0 mi West 13.8 mph - 0.01 in Rain Light Rain
10:55 PM 44.6 °F 37.8 °F 43.0 °F 94% 29.86 in 10.0 mi WNW 15.0 mph - 0.01 in   Overcast
11:55 PM 45.3 °F 37.8 °F 42.3 °F 89% 29.86 in 10.0 mi NW 18.4 mph - N/A   Overcast